Location: Detroit
(42.3310°N, 83.0460°W)
Time: 01:30:40
(UTC-04:00)

A-11 Canister half - Pass Details

Date: 10 February 2023
Orbit: 1526 x 1682 km, 47.3° (Epoch: 20 March)

Event Time Altitude Azimuth Distance (km) Brightness Sun altitude
Rises 07:20:53 0° 276° (W) 4,677 - -3.4°
Exits shadow 07:21:51 - 277° (W) 4,365 10.7 -3.2°
Reaches altitude 10° 07:23:58 10° 280° (W) 3,694 10.3 -2.9°
Maximum altitude 07:33:13 65° 2° (N) 1,663 9.2 -1.2°
Drops below altitude 10° 07:42:37 10° 84° (E) 3,752 12.3 0.4°
Sets 07:45:47 0° 87° (E) 4,755 13.0 1.0°
